When you browse on this site, cookies collect data to enhance your experience and personalize the content and advertising you see.
Visit our Privacy Policy to learn more. By continuing to use the site, you agree to this use of cookies and data.
  • In Hungary
  • List of Countries
  • For 7 days
  • Water Temperature
  • Satellite Maps
  • Weather Map
  • News
  • Weather Widgets
  • user-avatar
    Login

    Hourly Weather Viitivshchyna

    Today, 18 July, Thursday

    Time Temperature Precipitation Wind Pressure Humidity
    00:00 +12°C° 0 mm 2 mps 729 mmHg 92%
    01:00 +10°C° 0 mm 2 mps 729 mmHg 92%
    02:00 +10°C° 0 mm 2 mps 729 mmHg 93%
    03:00 +10°C° 0 mm 2 mps 729 mmHg 94%
    04:00 +9°C° 0 mm 2 mps 729 mmHg 94%
    05:00 +9°C° 0 mm 2 mps 729 mmHg 95%
    06:00 +11°C° 0 mm 3 mps 730 mmHg 89%
    07:00 +13°C° 0 mm 3 mps 730 mmHg 84%
    08:00 +14°C° 0 mm 3 mps 730 mmHg 78%
    09:00 +17°C° 0 mm 4 mps 730 mmHg 73%
    10:00 +18°C° 0 mm 4 mps 730 mmHg 67%
    11:00 +19°C° 0 mm 4 mps 731 mmHg 61%
    12:00 +20°C° 0 mm 4 mps 731 mmHg 60%
    13:00 +20°C° 0 mm 4 mps 731 mmHg 58%
    14:00 +21°C° 0 mm 3 mps 731 mmHg 57%
    15:00 +21°C° 0 mm 3 mps 730 mmHg 57%
    16:00 +21°C° 0 mm 3 mps 730 mmHg 58%
    17:00 +21°C° 0 mm 3 mps 730 mmHg 58%
    18:00 +20°C° 0 mm 2 mps 730 mmHg 64%
    19:00 +18°C° 0 mm 2 mps 730 mmHg 70%
    20:00 +18°C° 0 mm 1 mps 730 mmHg 75%
    21:00 +16°C° 0 mm 1 mps 731 mmHg 78%
    22:00 +14°C° 0 mm 1 mps 731 mmHg 80%
    23:00 +12°C° 0 mm 0 mps 731 mmHg 83%

    Tomorrow, 19 July, Friday

    Time Temperature Precipitation Wind Pressure Humidity
    00:00 +13°C° 0 mm 1 mps 731 mmHg 83%
    01:00 +13°C° 0 mm 1 mps 731 mmHg 83%
    02:00 +13°C° 0 mm 1 mps 731 mmHg 84%
    03:00 +12°C° 0 mm 1 mps 731 mmHg 84%
    04:00 +12°C° 0 mm 1 mps 732 mmHg 85%
    05:00 +12°C° 0 mm 1 mps 732 mmHg 86%
    06:00 +14°C° 0 mm 1 mps 732 mmHg 80%
    07:00 +16°C° 0 mm 1 mps 732 mmHg 75%
    08:00 +19°C° 0 mm 1 mps 733 mmHg 69%
    09:00 +21°C° 0 mm 1 mps 733 mmHg 63%
    10:00 +22°C° 0 mm 1 mps 733 mmHg 58%
    11:00 +23°C° 0 mm 1 mps 733 mmHg 52%
    12:00 +24°C° 0 mm 1 mps 733 mmHg 50%
    13:00 +24°C° 0 mm 1 mps 733 mmHg 47%
    14:00 +25°C° 0 mm 1 mps 732 mmHg 45%
    15:00 +25°C° 0 mm 1 mps 732 mmHg 47%
    16:00 +25°C° 0 mm 1 mps 732 mmHg 49%
    17:00 +25°C° 0 mm 1 mps 732 mmHg 51%
    18:00 +23°C° 0 mm 1 mps 732 mmHg 58%
    19:00 +22°C° 0 mm 1 mps 732 mmHg 64%
    20:00 +20°C° 0 mm 1 mps 732 mmHg 71%
    21:00 +19°C° 0 mm 1 mps 733 mmHg 74%
    22:00 +18°C° 0 mm 1 mps 733 mmHg 77%
    23:00 +16°C° 0 mm 2 mps 733 mmHg 80%

    Day after tomorrow, 20 July, Saturday

    Time Temperature Precipitation Wind Pressure Humidity
    00:00 +16°C° 0 mm 2 mps 733 mmHg 81%
    01:00 +16°C° 0 mm 2 mps 733 mmHg 81%
    02:00 +16°C° 0 mm 2 mps 733 mmHg 82%
    03:00 +16°C° 0.5 mm 2 mps 733 mmHg 86%
    04:00 +16°C° 0.5 mm 1 mps 733 mmHg 90%
    05:00 +15°C° 0.5 mm 1 mps 733 mmHg 94%
    06:00 +16°C° 0.3 mm 2 mps 733 mmHg 93%
    07:00 +16°C° 0.3 mm 2 mps 733 mmHg 92%
    08:00 +17°C° 0.3 mm 2 mps 734 mmHg 92%
    09:00 +18°C° 0.2 mm 2 mps 734 mmHg 86%
    10:00 +20°C° 0.2 mm 2 mps 734 mmHg 80%
    11:00 +23°C° 0.2 mm 2 mps 734 mmHg 73%
    12:00 +24°C° 0.4 mm 2 mps 734 mmHg 69%
    13:00 +25°C° 0.4 mm 2 mps 734 mmHg 65%
    14:00 +25°C° 0.4 mm 1 mps 734 mmHg 60%
    15:00 +25°C° 0.4 mm 1 mps 734 mmHg 61%
    16:00 +25°C° 0.4 mm 2 mps 734 mmHg 62%
    17:00 +25°C° 0.4 mm 2 mps 734 mmHg 63%
    18:00 +24°C° 0 mm 2 mps 734 mmHg 68%
    19:00 +21°C° 0 mm 2 mps 734 mmHg 74%
    20:00 +20°C° 0 mm 2 mps 734 mmHg 80%
    21:00 +19°C° 0 mm 2 mps 734 mmHg 83%
    22:00 +18°C° 0 mm 2 mps 734 mmHg 86%
    23:00 +17°C° 0 mm 2 mps 735 mmHg 90%

    21 July, Sunday

    Time Temperature Precipitation Wind Pressure Humidity
    00:00 +17°C° 0 mm 2 mps 734 mmHg 90%
    01:00 +18°C° 0 mm 1 mps 734 mmHg 91%
    02:00 +16°C° 0 mm 1 mps 734 mmHg 91%
    03:00 +16°C° 0 mm 1 mps 734 mmHg 92%
    04:00 +16°C° 0 mm 1 mps 734 mmHg 92%
    05:00 +16°C° 0 mm 1 mps 734 mmHg 92%
    06:00 +19°C° 0 mm 1 mps 734 mmHg 87%
    07:00 +20°C° 0 mm 1 mps 735 mmHg 83%
    08:00 +21°C° 0 mm 2 mps 735 mmHg 78%
    09:00 +24°C° 0 mm 2 mps 735 mmHg 72%
    10:00 +25°C° 0 mm 2 mps 735 mmHg 67%
    11:00 +27°C° 0 mm 2 mps 735 mmHg 61%
    12:00 +27°C° 0 mm 2 mps 735 mmHg 58%
    13:00 +28°C° 0 mm 2 mps 734 mmHg 56%
    14:00 +29°C° 0 mm 2 mps 734 mmHg 53%
    15:00 +29°C° 0.6 mm 2 mps 734 mmHg 57%
    16:00 +28°C° 0.6 mm 2 mps 734 mmHg 62%
    17:00 +28°C° 0.6 mm 3 mps 734 mmHg 66%
    18:00 +25°C° 2.3 mm 3 mps 734 mmHg 74%
    19:00 +22°C° 2.3 mm 4 mps 734 mmHg 81%
    20:00 +20°C° 2.3 mm 4 mps 733 mmHg 89%
    21:00 +19°C° 0.3 mm 4 mps 734 mmHg 90%
    22:00 +18°C° 0.3 mm 3 mps 734 mmHg 91%
    23:00 +17°C° 0.3 mm 3 mps 734 mmHg 92%

    22 July, Monday

    Time Temperature Precipitation Wind Pressure Humidity
    00:00 +17°C° 0 mm 3 mps 734 mmHg 93%
    01:00 +17°C° 0 mm 3 mps 734 mmHg 94%
    02:00 +17°C° 0 mm 3 mps 734 mmHg 95%
    03:00 +17°C° 0 mm 3 mps 734 mmHg 95%
    04:00 +17°C° 0 mm 3 mps 734 mmHg 95%
    05:00 +17°C° 0 mm 3 mps 734 mmHg 95%
    06:00 +18°C° 0 mm 3 mps 734 mmHg 92%
    07:00 +19°C° 0 mm 3 mps 735 mmHg 89%
    08:00 +20°C° 0 mm 4 mps 735 mmHg 86%
    09:00 +21°C° 0.1 mm 4 mps 735 mmHg 80%
    10:00 +22°C° 0.1 mm 3 mps 735 mmHg 74%
    11:00 +25°C° 0.1 mm 3 mps 735 mmHg 68%
    12:00 +25°C° 0.5 mm 3 mps 735 mmHg 68%
    13:00 +25°C° 0.5 mm 3 mps 735 mmHg 67%
    14:00 +25°C° 0.5 mm 3 mps 735 mmHg 67%
    15:00 +25°C° 0.3 mm 3 mps 734 mmHg 67%
    16:00 +25°C° 0.3 mm 3 mps 734 mmHg 68%
    17:00 +25°C° 0.3 mm 3 mps 734 mmHg 68%
    18:00 +24°C° 0.3 mm 2 mps 734 mmHg 74%
    19:00 +21°C° 0.3 mm 2 mps 734 mmHg 79%
    20:00 +21°C° 0.3 mm 1 mps 734 mmHg 85%
    21:00 +20°C° 0.1 mm 1 mps 734 mmHg 86%
    22:00 +19°C° 0.1 mm 1 mps 734 mmHg 87%
    23:00 +16°C° 0.1 mm 0 mps 734 mmHg 88%

    23 July, Tuesday

    Time Temperature Precipitation Wind Pressure Humidity
    00:00 +18°C° 0.2 mm 1 mps 734 mmHg 89%
    01:00 +18°C° 0.2 mm 1 mps 734 mmHg 91%
    02:00 +16°C° 0.2 mm 1 mps 734 mmHg 92%
    03:00 +16°C° 0.7 mm 2 mps 734 mmHg 94%
    04:00 +16°C° 0.7 mm 2 mps 734 mmHg 95%
    05:00 +15°C° 0.7 mm 2 mps 733 mmHg 96%
    06:00 +17°C° 0.2 mm 2 mps 734 mmHg 94%
    07:00 +18°C° 0.2 mm 3 mps 734 mmHg 91%
    08:00 +19°C° 0.2 mm 3 mps 734 mmHg 89%
    09:00 +20°C° 0.5 mm 3 mps 734 mmHg 84%
    10:00 +21°C° 0.5 mm 3 mps 735 mmHg 80%
    11:00 +22°C° 0.5 mm 4 mps 735 mmHg 76%
    12:00 +22°C° 0.5 mm 4 mps 735 mmHg 74%
    13:00 +23°C° 0.5 mm 4 mps 735 mmHg 72%
    14:00 +23°C° 0.5 mm 4 mps 734 mmHg 70%
    15:00 +23°C° 0.3 mm 4 mps 734 mmHg 71%
    16:00 +23°C° 0.3 mm 4 mps 734 mmHg 72%
    17:00 +23°C° 0.3 mm 4 mps 734 mmHg 73%
    18:00 +22°C° 0.4 mm 3 mps 734 mmHg 78%
    19:00 +21°C° 0.4 mm 3 mps 734 mmHg 84%
    20:00 +19°C° 0.4 mm 2 mps 734 mmHg 89%
    21:00 +19°C° 0 mm 2 mps 734 mmHg 90%
    22:00 +18°C° 0 mm 2 mps 734 mmHg 91%
    23:00 +17°C° 0 mm 2 mps 734 mmHg 92%
    Show more